TimeCST,TemperatureF,Dew PointF,Humidity,Sea Level PressureIn,VisibilityMPH,Wind Direction,Wind SpeedMPH,Gust SpeedMPH,PrecipitationIn,Events,Conditions,WindDirDegrees,DateUTC
12:13 AM,10.4,6.8,85,29.87,10.0,South,6.9,-,N/A,,Clear,180,2013-01-04 06:13:00
12:34 AM,10.4,8.6,92,29.87,10.0,South,4.6,-,N/A,,Clear,180,2013-01-04 06:34:00
12:54 AM,10.4,6.8,85,29.87,10.0,South,8.1,-,N/A,,Clear,170,2013-01-04 06:54:00
1:13 AM,8.6,5.0,85,29.87,10.0,South,8.1,-,N/A,,Clear,170,2013-01-04 07:13:00
1:34 AM,6.8,5.0,92,29.87,10.0,South,6.9,-,N/A,,Clear,180,2013-01-04 07:34:00
1:54 AM,6.8,3.2,85,29.87,10.0,South,8.1,-,N/A,,Clear,180,2013-01-04 07:54:00
2:34 AM,8.6,5.0,85,29.88,10.0,South,5.8,-,N/A,,Clear,190,2013-01-04 08:34:00
2:54 AM,8.6,5.0,85,29.89,10.0,SSW,4.6,-,N/A,,Clear,200,2013-01-04 08:54:00
3:13 AM,8.6,6.8,92,29.89,10.0,South,6.9,-,N/A,,Clear,180,2013-01-04 09:13:00
3:34 AM,6.8,3.2,85,29.91,10.0,South,5.8,-,N/A,,Clear,190,2013-01-04 09:34:00
3:54 AM,6.8,5.0,92,29.91,10.0,South,5.8,-,N/A,,Clear,180,2013-01-04 09:54:00
4:14 AM,8.6,6.8,92,29.91,10.0,SSE,4.6,-,N/A,,Clear,160,2013-01-04 10:14:00
4:34 AM,6.8,3.2,85,29.91,10.0,South,4.6,-,N/A,,Clear,170,2013-01-04 10:34:00
4:54 AM,6.8,5.0,92,29.92,10.0,South,6.9,-,N/A,,Clear,180,2013-01-04 10:54:00
5:14 AM,3.2,1.4,92,29.93,10.0,SSW,4.6,-,N/A,,Clear,200,2013-01-04 11:14:00
5:34 AM,5.0,3.2,92,29.93,10.0,SSW,4.6,-,N/A,,Clear,200,2013-01-04 11:34:00
5:54 AM,5.0,1.4,85,29.94,10.0,SSW,3.5,-,N/A,,Clear,210,2013-01-04 11:54:00
6:14 AM,8.6,5.0,85,29.94,10.0,Calm,Calm,-,N/A,,Clear,0,2013-01-04 12:14:00
6:34 AM,6.8,3.2,85,29.95,10.0,Calm,Calm,-,N/A,,Clear,0,2013-01-04 12:34:00
7:14 AM,3.2,-0.4,85,29.95,10.0,South,4.6,-,N/A,,Clear,180,2013-01-04 13:14:00
7:34 AM,3.2,-0.4,85,29.95,10.0,South,4.6,-,N/A,,Clear,180,2013-01-04 13:34:00
7:53 AM,3.2,1.4,92,29.96,10.0,South,6.9,-,N/A,,Clear,170,2013-01-04 13:53:00
8:14 AM,3.2,1.4,92,29.96,10.0,South,5.8,-,N/A,,Clear,190,2013-01-04 14:14:00
8:33 AM,3.2,-0.4,85,29.97,10.0,South,4.6,-,N/A,,Clear,190,2013-01-04 14:33:00
8:54 AM,3.2,-0.4,85,29.99,10.0,South,4.6,-,N/A,,Clear,170,2013-01-04 14:54:00
9:14 AM,1.4,-0.4,92,30.00,10.0,South,3.5,-,N/A,,Clear,190,2013-01-04 15:14:00
9:33 AM,3.2,1.4,92,30.01,10.0,Calm,Calm,-,N/A,,Clear,0,2013-01-04 15:33:00
9:54 AM,5.0,3.2,92,30.02,10.0,SW,3.5,-,N/A,,Clear,220,2013-01-04 15:54:00
10:14 AM,6.8,3.2,85,30.03,10.0,Calm,Calm,-,N/A,,Clear,0,2013-01-04 16:14:00
10:33 AM,10.4,8.6,92,30.04,10.0,Calm,Calm,-,N/A,,Clear,0,2013-01-04 16:33:00
10:54 AM,12.2,8.6,85,30.04,10.0,Calm,Calm,-,N/A,,Clear,0,2013-01-04 16:54:00
11:14 AM,12.2,10.4,92,30.05,10.0,Calm,Calm,-,N/A,,Clear,0,2013-01-04 17:14:00
11:33 AM,15.8,10.4,79,30.05,10.0,Calm,Calm,-,N/A,,Clear,0,2013-01-04 17:33:00
11:54 AM,15.8,12.2,86,30.06,10.0,Calm,Calm,-,N/A,,Clear,0,2013-01-04 17:54:00
12:14 PM,21.2,15.8,80,30.06,10.0,NW,6.9,-,N/A,,Clear,310,2013-01-04 18:14:00
12:33 PM,23.0,15.8,74,30.06,10.0,NW,6.9,-,N/A,,Clear,310,2013-01-04 18:33:00
12:54 PM,23.0,17.6,80,30.06,10.0,NNW,6.9,-,N/A,,Clear,330,2013-01-04 18:54:00
1:14 PM,24.8,17.6,74,30.05,10.0,NNW,8.1,-,N/A,,Clear,340,2013-01-04 19:14:00
1:34 PM,24.8,17.6,74,30.05,10.0,NNW,8.1,-,N/A,,Clear,330,2013-01-04 19:34:00
1:54 PM,24.8,17.6,74,30.05,10.0,NW,5.8,-,N/A,,Clear,320,2013-01-04 19:54:00
2:14 PM,24.8,17.6,74,30.06,10.0,NW,4.6,-,N/A,,Clear,320,2013-01-04 20:14:00
2:34 PM,23.0,17.6,80,30.06,10.0,Calm,Calm,-,N/A,,Clear,0,2013-01-04 20:34:00
2:54 PM,23.0,17.6,80,30.07,10.0,NW,5.8,-,N/A,,Clear,310,2013-01-04 20:54:00
3:14 PM,21.2,17.6,86,30.06,10.0,NNW,3.5,-,N/A,,Clear,330,2013-01-04 21:14:00
3:34 PM,23.0,17.6,80,30.06,10.0,NW,3.5,-,N/A,,Clear,320,2013-01-04 21:34:00
3:54 PM,21.2,17.6,86,30.06,10.0,NW,4.6,-,N/A,,Clear,310,2013-01-04 21:54:00
4:13 PM,19.4,15.8,86,30.08,10.0,NNW,4.6,-,N/A,,Clear,330,2013-01-04 22:13:00
4:34 PM,19.4,15.8,86,30.08,10.0,NNW,4.6,-,N/A,,Clear,340,2013-01-04 22:34:00
4:53 PM,19.4,17.6,93,30.08,10.0,Calm,Calm,-,N/A,,Clear,0,2013-01-04 22:53:00
5:33 PM,17.6,15.8,93,30.08,10.0,NNE,3.5,-,N/A,,Clear,30,2013-01-04 23:33:00
5:54 PM,12.2,10.4,92,30.08,10.0,NE,3.5,-,N/A,,Clear,40,2013-01-04 23:54:00
6:14 PM,14.0,12.2,93,30.09,10.0,Calm,Calm,-,N/A,,Clear,0,2013-01-05 00:14:00
6:33 PM,14.0,12.2,93,30.10,10.0,Calm,Calm,-,N/A,,Clear,0,2013-01-05 00:33:00
6:54 PM,10.4,8.6,92,30.09,10.0,Calm,Calm,-,N/A,,Clear,0,2013-01-05 00:54:00
7:14 PM,8.6,6.8,92,30.07,10.0,Calm,Calm,-,N/A,,Clear,0,2013-01-05 01:14:00
7:33 PM,6.8,3.2,85,30.07,10.0,Calm,Calm,-,N/A,,Clear,0,2013-01-05 01:33:00
7:54 PM,6.8,5.0,92,30.06,10.0,Calm,Calm,-,N/A,,Clear,0,2013-01-05 01:54:00
8:14 PM,8.6,6.8,92,30.05,1.5,Calm,Calm,-,N/A,,Mist,0,2013-01-05 02:14:00
8:33 PM,5.0,3.2,92,30.06,3.0,Calm,Calm,-,N/A,,Mostly Cloudy,0,2013-01-05 02:33:00
8:54 PM,3.2,-0.4,85,30.06,10.0,Calm,Calm,-,N/A,,Scattered Clouds,0,2013-01-05 02:54:00
9:14 PM,1.4,-0.4,92,30.05,10.0,Calm,Calm,-,N/A,,Clear,0,2013-01-05 03:14:00
9:34 PM,1.4,-0.4,92,30.06,10.0,Calm,Calm,-,N/A,,Clear,0,2013-01-05 03:34:00
9:54 PM,1.4,-0.4,92,30.06,7.0,Calm,Calm,-,N/A,,Clear,0,2013-01-05 03:54:00
10:13 PM,1.4,-0.4,92,30.05,10.0,Calm,Calm,-,N/A,,Scattered Clouds,0,2013-01-05 04:13:00
10:34 PM,1.4,-2.2,85,30.06,10.0,Calm,Calm,-,N/A,,Scattered Clouds,0,2013-01-05 04:34:00
11:13 PM,1.4,-2.2,85,30.04,10.0,Calm,Calm,-,N/A,,Scattered Clouds,0,2013-01-05 05:13:00
11:34 PM,1.4,-2.2,85,30.04,10.0,East,4.6,-,N/A,,Clear,80,2013-01-05 05:34:00
11:54 PM,3.2,1.4,92,30.03,10.0,East,4.6,-,N/A,,Clear,90,2013-01-05 05:54:00